TimeMDT,TemperatureF,Dew PointF,Humidity,Sea Level PressureIn,VisibilityMPH,Wind Direction,Wind SpeedMPH,Gust SpeedMPH,PrecipitationIn,Events,Conditions,WindDirDegrees,DateUTC
12:53 AM,41.0,37.0,86,29.88,10.0,Calm,Calm,-,N/A,,Partly Cloudy,0,2013-05-08 06:53:00
1:53 AM,39.0,36.0,89,29.90,10.0,NW,3.5,-,N/A,,Partly Cloudy,320,2013-05-08 07:53:00
2:53 AM,37.9,35.1,89,29.89,10.0,NW,4.6,-,N/A,,Clear,310,2013-05-08 08:53:00
3:53 AM,39.9,34.0,79,29.87,10.0,WNW,3.5,-,N/A,,Clear,300,2013-05-08 09:53:00
4:53 AM,39.0,33.1,79,29.87,10.0,NNW,4.6,-,N/A,,Clear,340,2013-05-08 10:53:00
5:53 AM,39.0,32.0,76,29.89,10.0,North,3.5,-,N/A,,Clear,10,2013-05-08 11:53:00
6:53 AM,48.9,36.0,61,29.88,10.0,NNE,4.6,-,N/A,,Clear,20,2013-05-08 12:53:00
7:53 AM,54.0,37.9,55,29.90,10.0,ENE,9.2,-,N/A,,Clear,60,2013-05-08 13:53:00
8:53 AM,55.9,37.9,51,29.94,10.0,East,13.8,-,N/A,,Clear,80,2013-05-08 14:53:00
9:53 AM,57.9,37.0,46,29.96,10.0,ENE,11.5,-,N/A,,Clear,60,2013-05-08 15:53:00
10:53 AM,60.1,35.1,39,29.98,10.0,ENE,16.1,21.9,N/A,,Scattered Clouds,70,2013-05-08 16:53:00
11:53 AM,62.1,35.1,37,29.98,10.0,NE,10.4,21.9,N/A,,Scattered Clouds,40,2013-05-08 17:53:00
12:53 PM,61.0,33.1,35,29.99,10.0,NE,15.0,21.9,N/A,,Partly Cloudy,40,2013-05-08 18:53:00
1:53 PM,62.1,34.0,35,29.99,10.0,NE,11.5,25.3,N/A,,Scattered Clouds,50,2013-05-08 19:53:00
2:53 PM,62.1,30.0,30,30.00,10.0,North,15.0,23.0,N/A,,Partly Cloudy,360,2013-05-08 20:53:00
3:53 PM,63.0,33.1,33,29.98,10.0,NE,15.0,19.6,N/A,,Clear,40,2013-05-08 21:53:00
4:53 PM,62.1,32.0,32,29.99,10.0,NE,10.4,-,N/A,,Clear,40,2013-05-08 22:53:00
5:53 PM,57.9,30.9,36,30.02,10.0,NE,13.8,24.2,N/A,,Scattered Clouds,50,2013-05-08 23:53:00
6:53 PM,57.9,30.9,36,29.99,10.0,NE,9.2,-,N/A,,Clear,50,2013-05-09 00:53:00
7:53 PM,54.0,32.0,43,30.01,10.0,NE,6.9,-,N/A,,Clear,40,2013-05-09 01:53:00
8:53 PM,51.1,33.1,50,30.02,10.0,NE,4.6,-,N/A,,Clear,50,2013-05-09 02:53:00
9:53 PM,50.0,32.0,50,30.04,10.0,NE,6.9,-,N/A,,Mostly Cloudy,50,2013-05-09 03:53:00
10:53 PM,48.0,33.1,56,30.04,10.0,NE,6.9,-,N/A,,Clear,50,2013-05-09 04:53:00
11:53 PM,48.0,33.1,56,30.04,10.0,NE,8.1,-,N/A,,Partly Cloudy,50,2013-05-09 05:53:00